Starlink 30918

operational
NORAD ID: 58365 Int'l Des: 2023-177 Owner: SPXS Country: US Constellation: starlink
LEOCIRCULAR

Über Starlink 30918

Beschreibung wird geladen...

Live-Position

3D-Globus wird geladen...

Nächste Überflüge

Höhenverlauf

Altitude vs Time

uPlot chart will show altitude changes over time

Zweizeiliger Elementsatz

1 58365U 23177Q 25348.65637788 .00000441 00000-0 47715-4 0 9996
2 58365 43.0045 93.7148 0001535 267.5580 92.5087 15.02530023115429
Epoch: 14. Dez. 2025 • Age: 31 hours

Aktueller Status

Höhe 562.6 km
Geschwindigkeit 7.59 km/s
Subsatellitenpunkt 40.20°N, 90.56°E
Startdatum 18. Nov. 2023
Alter 2 years
Typ internet

Technische Details

Klassifizierung Payload
Masse 730.00 kg
Trockenmasse 700.00 kg
Gesamtmasse 730.00 kg
Länge 0.30 m
Durchmesser 4.10 m
Spannweite 29.00 m
Form Box + pan
Hersteller SPXS
Bus-Typ Starlink V2M
Phasenstatus In Orbit
Besitzer/Staat SPXS/US

Große Konstellationen

Loading constellations...